Weather History for KMCE - March, 2013

Change the Weather History Date:

Saturday, March 30, 2013

  Actual Average Record
Temperature  
Mean Temperature 69 °F 55 °F  
Max Temperature 83 °F 68 °F 87 °F (2015)
Min Temperature 54 °F 43 °F 40 °F (2009)
Degree Days  
Heating Degree Days 0    
Month to date heating degree days 177  
Since 1 July heating degree days 2089  
Cooling Degree Days 4    
Month to date cooling degree days 5  
Year to date cooling degree days 5  
Growing Degree Days 18 (Base 50)    
Moisture  
Dew Point 50 °F    
Average Humidity 59    
Maximum Humidity 89    
Minimum Humidity 28    
Precipitation  
Precipitation 0.17 in 0.05 in 0.17 in (2013)
Month to date precipitation 0.44 2.02  
Year to date precipitation 1.86 6.97  
Since 1 July precipitation 6.69  
Snow  
Snow 0.00 in - - ()
Month to date snowfall 0.0  
Since 1 July snowfall 0.0  
Snow Depth 0.00 in    
Sea Level Pressure  
Sea Level Pressure 29.99 in    
Wind  
Wind Speed 5 mph (WNW)    
Max Wind Speed 16 mph    
Max Gust Speed 20 mph    
Visibility 10 miles    
Events Rain , Thunderstorm    
T = Trace of Precipitation, MM = Missing Value Source: NWS Daily Summary

Daily Weather History Graph

Daily Weather History Graph

Search for Another Location

Airport or City:

Trip Planner

Search our weather history database for the weather conditions in past years. The results will help you decide how hot, cold, wet, or windy it might be!

Date:

Astronomy

Mar. 30, 2013 Rise Set
Actual Time 6:50 AM PDT 7:23 PM PDT
Civil Twilight 6:23 AM PDT 7:49 PM PDT
Nautical Twilight 5:53 AM PDT 8:20 PM PDT
Astronomical Twilight 5:21 AM PDT 8:52 PM PDT
Moon 11:29 PM PDT (3/30) 8:54 AM PDT (3/30)
Length of Visible Light 13h 25m
Length of Day
12h 33m
Waning Gibbous, 85% of the Moon is Illuminated
Mar 30
Waning Gibbous
Apr 2
Last Quarter
Apr 10
New
Apr 18
First Quarter
Apr 25
Full

Hourly Weather History & Observations

Time (PDT) Temp. Dew Point Humidity Pressure Visibility Wind Dir Wind Speed Gust Speed Precip Events Conditions
12:53 AM 57.9 °F 51.1 °F 78% 30.01 in 10.0 mi Calm Calm - N/A   Clear
1:53 AM 55.9 °F 50.0 °F 80% 30.00 in 10.0 mi Calm Calm - N/A   Clear
2:53 AM 55.0 °F 48.0 °F 77% 30.00 in 7.0 mi WSW 4.6 mph - N/A   Clear
3:53 AM 55.0 °F 50.0 °F 83% 30.00 in 9.0 mi Calm Calm - N/A   Clear
4:53 AM 54.0 °F 50.0 °F 86% 29.99 in 8.0 mi NNW 4.6 mph - N/A   Clear
5:53 AM 57.0 °F 51.1 °F 81% 29.99 in 10.0 mi North 5.8 mph - N/A   Clear
6:53 AM 55.0 °F 50.0 °F 83% 30.01 in 10.0 mi Calm Calm - N/A   Clear
7:53 AM 55.9 °F 51.1 °F 84% 30.02 in 9.0 mi South 3.5 mph - N/A   Partly Cloudy
8:53 AM 61.0 °F 51.1 °F 70% 30.03 in 10.0 mi Calm Calm - N/A   Clear
9:53 AM 69.1 °F 48.9 °F 49% 30.04 in 10.0 mi WNW 5.8 mph - N/A   Clear
10:53 AM 72.0 °F 48.0 °F 43% 30.04 in 10.0 mi North 6.9 mph - N/A   Clear
11:53 AM 75.9 °F 50.0 °F 40% 30.03 in 10.0 mi NNE 6.9 mph - N/A   Clear
12:53 PM 78.1 °F 48.9 °F 36% 30.01 in 10.0 mi NW 4.6 mph - N/A   Clear
1:53 PM 79.0 °F 48.0 °F 34% 29.99 in 10.0 mi ESE 3.5 mph - N/A   Clear
2:53 PM 80.1 °F 46.0 °F 30% 29.96 in 10.0 mi SSW 4.6 mph - N/A   Clear
3:53 PM 82.0 °F 46.0 °F 28% 29.94 in 10.0 mi Variable 5.8 mph - N/A   Clear
4:53 PM 81.0 °F 44.1 °F 27% 29.92 in 10.0 mi Calm Calm - N/A   Clear
5:53 PM 78.1 °F 51.1 °F 39% 29.91 in 10.0 mi WNW 6.9 mph - N/A   Clear
6:53 PM 75.0 °F 48.9 °F 40% 29.91 in 10.0 mi WNW 8.1 mph - N/A   Clear
7:53 PM 69.1 °F 55.0 °F 61% 29.94 in 10.0 mi West 10.4 mph 17.3 mph N/A   Clear
8:53 PM 66.0 °F 54.0 °F 65% 29.97 in 10.0 mi West 8.1 mph - N/A   Partly Cloudy
9:53 PM 64.9 °F 53.1 °F 65% 29.99 in 10.0 mi NW 9.2 mph - 0.00 in   Overcast
10:53 PM 63.0 °F 52.0 °F 67% 30.01 in 10.0 mi West 4.6 mph - N/A   Overcast
11:48 PM 60.8 °F 53.6 °F 77% 30.02 in 5.0 mi WNW 6.9 mph - 0.07 in Rain , Thunderstorm Light Rain
11:53 PM 60.1 °F 53.1 °F 78% 30.03 in 10.0 mi NNW 4.6 mph - 0.07 in Rain , Thunderstorm Light Rain